When you browse on this site, cookies collect data to enhance your experience and personalize the content and advertising you see.
Visit our Privacy Policy to learn more. By continuing to use the site, you agree to this use of cookies and data.
  • In Deutschland
  • Länderverzeichnis
  • Für 7 Tage
  • Wassertemperatur
  • Satellitenkarten
  • Wetterkarte
  • Widgets
  • user-avatar
    Anmelden

    Stündliche Wetter Lusaka

    Heute, 22 Januar, Dienstag

    Zeit Temperatur Niederschläge Wind Luftdruck Luftfeuchtigkeit
    00:00 +19°C° 0 mm 1 m/S 657 mmHg 83%
    01:00 +19°C° 0 mm 1 m/S 656 mmHg 84%
    02:00 +19°C° 0 mm 1 m/S 656 mmHg 86%
    03:00 +18°C° 0 mm 1 m/S 655 mmHg 87%
    04:00 +18°C° 0 mm 1 m/S 655 mmHg 88%
    05:00 +18°C° 0 mm 1 m/S 655 mmHg 90%
    06:00 +19°C° 0 mm 1 m/S 656 mmHg 85%
    07:00 +20°C° 0 mm 1 m/S 656 mmHg 81%
    08:00 +22°C° 0 mm 1 m/S 657 mmHg 76%
    09:00 +24°C° 0 mm 1 m/S 657 mmHg 68%
    10:00 +25°C° 0 mm 2 m/S 658 mmHg 61%
    11:00 +27°C° 0 mm 2 m/S 658 mmHg 53%
    12:00 +27°C° 0 mm 2 m/S 657 mmHg 51%
    13:00 +28°C° 0 mm 2 m/S 657 mmHg 48%
    14:00 +29°C° 0 mm 2 m/S 656 mmHg 45%
    15:00 +28°C° 0 mm 2 m/S 656 mmHg 50%
    16:00 +27°C° 0 mm 2 m/S 655 mmHg 54%
    17:00 +27°C° 0 mm 2 m/S 655 mmHg 58%
    18:00 +25°C° 0 mm 1 m/S 655 mmHg 63%
    19:00 +23°C° 0 mm 1 m/S 655 mmHg 67%
    20:00 +21°C° 0 mm 1 m/S 655 mmHg 72%
    21:00 +21°C° 0 mm 1 m/S 655 mmHg 73%
    22:00 +19°C° 0 mm 0 m/S 655 mmHg 75%
    23:00 +18°C° 0 mm 0 m/S 656 mmHg 76%

    Morgen, 23 Januar, Mittwoch

    Zeit Temperatur Niederschläge Wind Luftdruck Luftfeuchtigkeit
    00:00 +18°C° 0 mm 0 m/S 655 mmHg 79%
    01:00 +17°C° 0 mm 0 m/S 655 mmHg 81%
    02:00 +19°C° 0 mm 1 m/S 654 mmHg 84%
    03:00 +19°C° 0 mm 1 m/S 654 mmHg 87%
    04:00 +18°C° 0 mm 1 m/S 654 mmHg 90%
    05:00 +18°C° 0 mm 1 m/S 654 mmHg 92%
    06:00 +20°C° 0 mm 1 m/S 655 mmHg 87%
    07:00 +21°C° 0 mm 1 m/S 656 mmHg 83%
    08:00 +23°C° 0 mm 1 m/S 656 mmHg 78%
    09:00 +26°C° 0 mm 1 m/S 657 mmHg 70%
    10:00 +26°C° 0 mm 0 m/S 657 mmHg 63%
    11:00 +29°C° 0 mm 0 m/S 658 mmHg 55%
    12:00 +28°C° 0 mm 0 m/S 657 mmHg 54%
    13:00 +28°C° 0 mm 0 m/S 656 mmHg 53%
    14:00 +28°C° 0 mm 0 m/S 656 mmHg 51%
    15:00 +27°C° 0 mm 0 m/S 655 mmHg 55%
    16:00 +26°C° 0 mm 0 m/S 654 mmHg 58%
    17:00 +25°C° 0 mm 0 m/S 654 mmHg 61%
    18:00 +24°C° 0 mm 0 m/S 654 mmHg 65%
    19:00 +23°C° 0 mm 0 m/S 654 mmHg 70%
    20:00 +21°C° 0 mm 0 m/S 654 mmHg 74%
    21:00 +21°C° 0 mm 0 m/S 655 mmHg 76%
    22:00 +22°C° 0 mm 1 m/S 655 mmHg 77%
    23:00 +22°C° 0 mm 1 m/S 655 mmHg 79%

    übermorgen, 24 Januar, Donnerstag

    Zeit Temperatur Niederschläge Wind Luftdruck Luftfeuchtigkeit
    00:00 +22°C° 0 mm 1 m/S 655 mmHg 81%
    01:00 +21°C° 0 mm 1 m/S 654 mmHg 83%
    02:00 +21°C° 0 mm 1 m/S 654 mmHg 85%
    03:00 +20°C° 0.3 mm 1 m/S 654 mmHg 87%
    04:00 +20°C° 0.3 mm 1 m/S 654 mmHg 89%
    05:00 +20°C° 0.3 mm 1 m/S 654 mmHg 91%
    06:00 +21°C° 0.3 mm 1 m/S 655 mmHg 89%
    07:00 +21°C° 0.3 mm 1 m/S 655 mmHg 87%
    08:00 +22°C° 0.3 mm 1 m/S 656 mmHg 85%
    09:00 +23°C° 0.7 mm 1 m/S 656 mmHg 83%
    10:00 +24°C° 0.7 mm 1 m/S 657 mmHg 80%
    11:00 +25°C° 0.7 mm 1 m/S 657 mmHg 78%
    12:00 +26°C° 0.8 mm 1 m/S 656 mmHg 75%
    13:00 +26°C° 0.8 mm 1 m/S 656 mmHg 73%
    14:00 +27°C° 0.8 mm 1 m/S 655 mmHg 70%
    15:00 +26°C° 0.3 mm 1 m/S 655 mmHg 72%
    16:00 +26°C° 0.3 mm 1 m/S 655 mmHg 74%
    17:00 +26°C° 0.3 mm 1 m/S 655 mmHg 76%
    18:00 +25°C° 0 mm 1 m/S 655 mmHg 80%
    19:00 +23°C° 0 mm 1 m/S 655 mmHg 84%
    20:00 +22°C° 0 mm 1 m/S 655 mmHg 87%
    21:00 +21°C° 0 mm 1 m/S 655 mmHg 88%
    22:00 +20°C° 0 mm 2 m/S 656 mmHg 89%
    23:00 +20°C° 0 mm 2 m/S 656 mmHg 89%

    25 Januar, Freitag

    Zeit Temperatur Niederschläge Wind Luftdruck Luftfeuchtigkeit
    00:00 +19°C° 0 mm 2 m/S 655 mmHg 91%
    01:00 +19°C° 0 mm 2 m/S 655 mmHg 92%
    02:00 +19°C° 0 mm 2 m/S 655 mmHg 94%
    03:00 +20°C° 0 mm 1 m/S 655 mmHg 94%
    04:00 +19°C° 0 mm 1 m/S 655 mmHg 94%
    05:00 +17°C° 0 mm 0 m/S 655 mmHg 95%
    06:00 +20°C° 0 mm 1 m/S 656 mmHg 90%
    07:00 +21°C° 0 mm 1 m/S 657 mmHg 85%
    08:00 +22°C° 0 mm 1 m/S 657 mmHg 80%
    09:00 +25°C° 0 mm 1 m/S 658 mmHg 72%
    10:00 +27°C° 0 mm 1 m/S 658 mmHg 63%
    11:00 +29°C° 0 mm 1 m/S 659 mmHg 55%
    12:00 +30°C° 0.1 mm 1 m/S 658 mmHg 55%
    13:00 +30°C° 0.1 mm 1 m/S 658 mmHg 54%
    14:00 +28°C° 0.1 mm 0 m/S 657 mmHg 53%
    15:00 +28°C° 0.1 mm 0 m/S 657 mmHg 55%
    16:00 +29°C° 0.1 mm 1 m/S 656 mmHg 57%
    17:00 +29°C° 0.1 mm 1 m/S 656 mmHg 58%
    18:00 +27°C° 0.3 mm 1 m/S 656 mmHg 64%
    19:00 +25°C° 0.3 mm 1 m/S 656 mmHg 70%
    20:00 +23°C° 0.3 mm 1 m/S 656 mmHg 76%
    21:00 +23°C° 0 mm 1 m/S 657 mmHg 78%
    22:00 +22°C° 0 mm 1 m/S 657 mmHg 80%
    23:00 +22°C° 0 mm 1 m/S 657 mmHg 82%

    26 Januar, Samstag

    Zeit Temperatur Niederschläge Wind Luftdruck Luftfeuchtigkeit
    00:00 +21°C° 0 mm 1 m/S 656 mmHg 85%
    01:00 +21°C° 0 mm 1 m/S 656 mmHg 87%
    02:00 +20°C° 0 mm 1 m/S 656 mmHg 89%
    03:00 +20°C° 0 mm 1 m/S 656 mmHg 90%
    04:00 +20°C° 0 mm 1 m/S 656 mmHg 91%
    05:00 +19°C° 0 mm 1 m/S 656 mmHg 92%
    06:00 +20°C° 0 mm 1 m/S 657 mmHg 88%
    07:00 +21°C° 0 mm 2 m/S 658 mmHg 83%
    08:00 +23°C° 0 mm 2 m/S 658 mmHg 79%
    09:00 +25°C° 0 mm 2 m/S 659 mmHg 72%
    10:00 +26°C° 0 mm 2 m/S 659 mmHg 66%
    11:00 +28°C° 0 mm 3 m/S 659 mmHg 59%
    12:00 +28°C° 0.5 mm 3 m/S 658 mmHg 58%
    13:00 +29°C° 0.5 mm 2 m/S 658 mmHg 57%
    14:00 +29°C° 0.5 mm 2 m/S 657 mmHg 56%
    15:00 +29°C° 0.1 mm 2 m/S 657 mmHg 58%
    16:00 +29°C° 0.1 mm 2 m/S 656 mmHg 60%
    17:00 +28°C° 0.1 mm 2 m/S 656 mmHg 62%
    18:00 +26°C° 0 mm 2 m/S 656 mmHg 69%
    19:00 +24°C° 0 mm 2 m/S 656 mmHg 76%
    20:00 +21°C° 0 mm 2 m/S 656 mmHg 83%
    21:00 +21°C° 0 mm 2 m/S 656 mmHg 84%
    22:00 +21°C° 0 mm 2 m/S 657 mmHg 86%
    23:00 +20°C° 0 mm 2 m/S 657 mmHg 87%

    27 Januar, Sonntag

    Zeit Temperatur Niederschläge Wind Luftdruck Luftfeuchtigkeit
    00:00 +20°C° 0 mm 2 m/S 657 mmHg 88%
    01:00 +19°C° 0 mm 2 m/S 656 mmHg 89%
    02:00 +19°C° 0 mm 2 m/S 656 mmHg 90%
    03:00 +18°C° 0 mm 2 m/S 656 mmHg 91%
    04:00 +18°C° 0 mm 2 m/S 656 mmHg 92%
    05:00 +18°C° 0 mm 2 m/S 656 mmHg 93%
    06:00 +19°C° 0 mm 2 m/S 656 mmHg 88%
    07:00 +21°C° 0 mm 3 m/S 657 mmHg 83%
    08:00 +22°C° 0 mm 3 m/S 658 mmHg 78%
    09:00 +24°C° 0 mm 3 m/S 658 mmHg 74%
    10:00 +26°C° 0 mm 3 m/S 658 mmHg 69%
    11:00 +27°C° 0 mm 3 m/S 659 mmHg 65%
    12:00 +27°C° 0.7 mm 3 m/S 658 mmHg 66%
    13:00 +27°C° 0.7 mm 3 m/S 657 mmHg 66%
    14:00 +28°C° 0.7 mm 3 m/S 657 mmHg 67%
    15:00 +28°C° 0.5 mm 3 m/S 657 mmHg 67%
    16:00 +27°C° 0.5 mm 3 m/S 656 mmHg 67%
    17:00 +27°C° 0.5 mm 3 m/S 656 mmHg 67%
    18:00 +26°C° 0 mm 3 m/S 656 mmHg 73%
    19:00 +24°C° 0 mm 2 m/S 656 mmHg 79%
    20:00 +21°C° 0 mm 2 m/S 656 mmHg 84%
    21:00 +21°C° 0 mm 2 m/S 657 mmHg 85%
    22:00 +21°C° 0 mm 2 m/S 657 mmHg 87%
    23:00 +20°C° 0 mm 2 m/S 657 mmHg 88%
    Mehr zeigen